Location: Calberlah
(52.4230°N, 10.6240°E)
Time: 00:11:49
(UTC+00:00)

BREEZE-M R/B - Pass Details

Date: 19 May 2025
Orbit: 537 x 26537 km, 49.0° (Epoch: 12 June)

Event Time Altitude Azimuth Distance (km) Brightness Sun altitude
Rises 19:27:41 0° 265° (W) 16,328 10.6 -2.6°
Reaches altitude 10° 19:48:00 10° 268° (W) 10,531 9.5 -4.9°
Maximum altitude 20:12:16 73° 190° (S) 1,596 4.5 -7.6°
Drops below altitude 10° 20:17:14 10° 106° (ESE) 2,457 5.1 -8.1°
Enters shadow 20:17:58 - 105° (ESE) 2,769 5.4 -8.1°
